,,,PA_Meas_PMT16A,,PR_Meas_QMR101_102,,RH_Meas_QMH101,,SR_Meas_QMS101,,TA_Meas_QMH101,,GenWind,,GenWind,
date,time,status,PA,status,PR,status,RH,status,SR,status,TA,status,DirAvg,status,SpdAvg,
2009-02-17, 00:00:05,VALID,1000.82,VALID,0,VALID,90.0371,VALID,0,VALID,23.0218,VALID,91,VALID,0.508594,
2009-02-17, 00:01:05,VALID,1000.82,VALID,0,VALID,89.8922,VALID,0,VALID,23.0413,VALID,72,VALID,0.532812,
2009-02-17, 00:02:05,VALID,1000.79,VALID,0,VALID,89.6709,VALID,0,VALID,23.0218,VALID,69,VALID,0.491016,
2009-02-17, 00:03:05,VALID,1000.81,VALID,0,VALID,89.6251,VALID,0,VALID,23.0218,VALID,69,VALID,0.301562,
2009-02-17, 00:04:05,VALID,1000.81,VALID,0,VALID,89.6938,VALID,0,VALID,23.0218,VALID,69,VALID,0.124609,
2009-02-17, 00:05:05,VALID,1000.82,VALID,0,VALID,89.7396,VALID,0,VALID,23.0006,VALID,69,VALID,0,
2009-02-17, 00:06:05,VALID,1000.81,VALID,0,VALID,89.7777,VALID,0,VALID,22.9811,VALID,69,VALID,0,
2009-02-17, 00:07:05,VALID,1000.83,VALID,0,VALID,89.8998,VALID,0,VALID,22.9811,VALID,69,VALID,0.0199219,
2009-02-17, 00:08:05,VALID,1000.77,VALID,0,VALID,89.8998,VALID,0,VALID,22.9811,VALID,69,VALID,0.321094,
2009-02-17, 00:09:05,VALID,1000.76,VALID,0,VALID,89.6786,VALID,0,VALID,23.0006,VALID,111,VALID,0.551562,
2009-02-17, 00:10:05,VALID,1000.74,VALID,0,VALID,89.6175,VALID,0,VALID,23.0201,VALID,120,VALID,0.640625,
2009-02-17, 00:11:05,VALID,1000.71,VALID,0,VALID,89.587,VALID,0,VALID,23.0396,VALID,120,VALID,0.600391,
2009-02-17, 00:12:05,VALID,1000.7,VALID,0,VALID,89.2971,VALID,0,VALID,23.0786,VALID,120,VALID,0.635547,
2009-02-17, 00:13:05,VALID,1000.66,VALID,0,VALID,89.1368,VALID,0,VALID,23.0769,VALID,120,VALID,0.793359,
2009-02-17, 00:14:05,VALID,1000.65,VALID,0,VALID,88.9766,VALID,0,VALID,23.0981,VALID,109,VALID,0.610547,
2009-02-17, 00:15:05,VALID,1000.66,VALID,0,VALID,88.9461,VALID,0,VALID,23.0964,VALID,109,VALID,0.750391,
2009-02-17, 00:16:05,VALID,1000.65,VALID,0,VALID,89.0224,VALID,0,VALID,23.0981,VALID,107,VALID,0.595312,
2009-02-17, 00:17:05,VALID,1000.6,VALID,0,VALID,89.0224,VALID,0,VALID,23.0981,VALID,107,VALID,0.742188,
2009-02-17, 00:18:05,VALID,1000.6,VALID,0,VALID,89.1826,VALID,0,VALID,23.0981,VALID,109,VALID,0.6,
2009-02-17, 00:19:05,VALID,1000.58,VALID,0,VALID,88.9309,VALID,0,VALID,23.0981,VALID,113,VALID,0.574219,
2009-02-17, 00:20:05,VALID,1000.58,VALID,0,VALID,88.9614,VALID,0,VALID,23.0981,VALID,117,VALID,0.855469,
2009-02-17, 00:21:05,VALID,1000.58,VALID,0,VALID,88.9385,VALID,0,VALID,23.1176,VALID,118,VALID,0.710156,
2009-02-17, 00:22:05,VALID,1000.58,VALID,0,VALID,88.9614,VALID,0,VALID,23.1176,VALID,117,VALID,0.705469,
2009-02-17, 00:23:05,VALID,1000.54,VALID,0,VALID,89.0224,VALID,0,VALID,23.0981,VALID,107,VALID,0.565625,
2009-02-17, 00:24:05,VALID,1000.53,VALID,0,VALID,89.114,VALID,0,VALID,23.0786,VALID,101,VALID,0.418359,
2009-02-17, 00:25:05,VALID,1000.49,VALID,0,VALID,89.1597,VALID,0,VALID,23.0786,VALID,99,VALID,0.664844,
2009-02-17, 00:26:05,VALID,1000.46,VALID,0,VALID,89.3276,VALID,0,VALID,23.0999,VALID,103,VALID,0.348437,
2009-02-17, 00:27:05,VALID,1000.41,VALID,0,VALID,89.3963,VALID,0,VALID,23.0396,VALID,103,VALID,0.575391,
2009-02-17, 00:28:05,VALID,1000.43,VALID,0,VALID,89.4649,VALID,0,VALID,23.0396,VALID,105,VALID,0.480859,
2009-02-17, 00:29:05,VALID,1000.37,VALID,0,VALID,89.5107,VALID,0,VALID,23.0396,VALID,107,VALID,0.877734,
2009-02-17, 00:30:05,VALID,1000.38,VALID,0,VALID,89.5641,VALID,0,VALID,23.0201,VALID,121,VALID,0.654297,
2009-02-17, 00:31:05,VALID,1000.36,VALID,0,VALID,89.5794,VALID,0,VALID,23.0201,VALID,121,VALID,0.428516,
2009-02-17, 00:32:05,VALID,1000.4,VALID,0,VALID,89.8159,VALID,0,VALID,23.0201,VALID,127,VALID,0.559766,
2009-02-17, 00:33:05,VALID,1000.37,VALID,0,VALID,89.9227,VALID,0,VALID,23.0006,VALID,127,VALID,0.744141,
2009-02-17, 00:34:05,VALID,1000.35,VALID,0,VALID,90.0829,VALID,0,VALID,22.9828,VALID,127,VALID,0.890234,
2009-02-17, 00:35:05,VALID,1000.36,VALID,0,VALID,90.2966,VALID,0,VALID,22.9615,VALID,127,VALID,0.886719,
2009-02-17, 00:36:05,VALID,1000.36,VALID,0,VALID,90.3728,VALID,0,VALID,22.9225,VALID,127,VALID,0.714453,
2009-02-17, 00:37:05,VALID,1000.36,VALID,0,VALID,90.5483,VALID,0,VALID,22.9225,VALID,127,VALID,0.673437,
2009-02-17, 00:38:05,VALID,1000.35,VALID,0,VALID,90.6399,VALID,0,VALID,22.8835,VALID,128,VALID,0.702734,
2009-02-17, 00:39:05,VALID,1000.33,VALID,0,VALID,90.7772,VALID,0,VALID,22.8835,VALID,128,VALID,0.551562,
2009-02-17, 00:40:05,VALID,1000.3,VALID,0,VALID,90.8764,VALID,0,VALID,22.864,VALID,128,VALID,0.326172,
2009-02-17, 00:41:05,VALID,1000.29,VALID,0,VALID,90.9374,VALID,0,VALID,22.8445,VALID,128,VALID,0.219531,
2009-02-17, 00:42:05,VALID,1000.26,VALID,0,VALID,91.0443,VALID,0,VALID,22.8445,VALID,128,VALID,0.0871094,
2009-02-17, 00:43:05,VALID,1000.23,VALID,0,VALID,90.9985,VALID,0,VALID,22.8462,VALID,128,VALID,0.00429688,
2009-02-17, 00:44:05,VALID,1000.2,VALID,0,VALID,90.9832,VALID,0,VALID,22.8267,VALID,128,VALID,0,
2009-02-17, 00:45:05,VALID,1000.21,VALID,0,VALID,90.8535,VALID,0,VALID,22.8072,VALID,128,VALID,0,
2009-02-17, 00:46:05,VALID,1000.2,VALID,0,VALID,90.9603,VALID,0,VALID,22.7664,VALID,128,VALID,0,
2009-02-17, 00:47:05,VALID,1000.23,VALID,0,VALID,91.0595,VALID,0,VALID,22.7664,VALID,128,VALID,0,
2009-02-17, 00:48:05,VALID,1000.23,VALID,0,VALID,91.0824,VALID,0,VALID,22.7469,VALID,128,VALID,0.00351562,
2009-02-17, 00:49:05,VALID,1000.25,VALID,0,VALID,91.0595,VALID,0,VALID,22.7274,VALID,128,VALID,0.183594,
2009-02-17, 00:50:05,VALID,1000.22,VALID,0,VALID,91.1968,VALID,0,VALID,22.6884,VALID,128,VALID,0.0625,
2009-02-17, 00:51:05,VALID,1000.2,VALID,0,VALID,90.9222,VALID,0,VALID,22.6689,VALID,104,VALID,0.408594,
2009-02-17, 00:52:05,VALID,1000.2,VALID,0,VALID,91.09,VALID,0,VALID,22.6121,VALID,40,VALID,0.526172,
2009-02-17, 00:53:05,VALID,1000.17,VALID,0,VALID,91.6851,VALID,0,VALID,22.5323,VALID,32,VALID,0.579297,
2009-02-17, 00:54:05,VALID,1000.16,VALID,0,VALID,92.3489,VALID,0,VALID,22.5128,VALID,32,VALID,0.582031,
2009-02-17, 00:55:05,VALID,1000.16,VALID,0,VALID,92.3718,VALID,0,VALID,22.4933,VALID,30,VALID,0.703906,
2009-02-17, 00:56:05,VALID,1000.14,VALID,0,VALID,92.8448,VALID,0,VALID,22.4738,VALID,27,VALID,0.583594,
2009-02-17, 00:57:05,VALID,1000.13,VALID,0,VALID,92.9135,VALID,0,VALID,22.4348,VALID,27,VALID,0.473828,
2009-02-17, 00:58:05,VALID,1000.07,VALID,0,VALID,93.1119,VALID,0,VALID,22.4365,VALID,27,VALID,0.33125,
2009-02-17, 00:59:05,VALID,1000.08,VALID,0,VALID,93.3637,VALID,0,VALID,22.4153,VALID,27,VALID,0.269531,
2009-02-17, 01:00:05,VALID,1000.06,VALID,0,VALID,93.4171,VALID,0,VALID,22.4153,VALID,27,VALID,0.0765625,
2009-02-17, 01:01:05,VALID,1000.04,VALID,0,VALID,93.4628,VALID,0,VALID,22.417,VALID,27,VALID,0,
2009-02-17, 01:02:05,VALID,1000.03,VALID,0,VALID,93.4476,VALID,0,VALID,22.3763,VALID,27,VALID,0.136328,
2009-02-17, 01:03:05,VALID,999.972,VALID,0,VALID,93.2721,VALID,0,VALID,22.378,VALID,27,VALID,0.194141,
2009-02-17, 01:04:05,VALID,999.961,VALID,0,VALID,93.4628,VALID,0,VALID,22.3178,VALID,27,VALID,0.280469,
2009-02-17, 01:05:05,VALID,999.958,VALID,0,VALID,93.5544,VALID,0,VALID,22.3,VALID,28,VALID,0.508594,
2009-02-17, 01:06:05,VALID,999.955,VALID,0,VALID,93.5315,VALID,0,VALID,22.2592,VALID,88,VALID,0.622266,
2009-02-17, 01:07:05,VALID,999.935,VALID,0,VALID,93.6536,VALID,0,VALID,22.2609,VALID,95,VALID,0.671094,
2009-02-17, 01:08:05,VALID,999.923,VALID,0,VALID,93.7909,VALID,0,VALID,22.2592,VALID,99,VALID,0.628125,
2009-02-17, 01:09:05,VALID,999.952,VALID,0,VALID,93.9054,VALID,0,VALID,22.2788,VALID,103,VALID,0.551953,
2009-02-17, 01:10:05,VALID,999.906,VALID,0,VALID,93.8748,VALID,0,VALID,22.2788,VALID,103,VALID,0.379687,
2009-02-17, 01:11:05,VALID,999.888,VALID,0,VALID,93.8367,VALID,0,VALID,22.2788,VALID,103,VALID,0.367578,
2009-02-17, 01:12:05,VALID,999.866,VALID,0,VALID,93.7528,VALID,0,VALID,22.2788,VALID,103,VALID,0.289844,
2009-02-17, 01:13:05,VALID,999.867,VALID,0,VALID,93.7299,VALID,0,VALID,22.2788,VALID,103,VALID,0.279687,
2009-02-17, 01:14:05,VALID,999.849,VALID,0,VALID,93.707,VALID,0,VALID,22.2592,VALID,103,VALID,0.192578,
2009-02-17, 01:15:05,VALID,999.844,VALID,0,VALID,93.7375,VALID,0,VALID,22.2592,VALID,103,VALID,0.0105469,
2009-02-17, 01:16:05,VALID,999.785,VALID,0,VALID,93.7223,VALID,0,VALID,22.2397,VALID,103,VALID,0,
2009-02-17, 01:17:05,VALID,999.777,VALID,0,VALID,93.6307,VALID,0,VALID,22.2202,VALID,103,VALID,0.000390625,
2009-02-17, 01:18:05,VALID,999.768,VALID,0,VALID,93.6078,VALID,0,VALID,22.2007,VALID,103,VALID,0.215625,
2009-02-17, 01:19:05,VALID,999.738,VALID,0,VALID,93.7985,VALID,0,VALID,22.1812,VALID,103,VALID,0.227734,
2009-02-17, 01:20:05,VALID,999.748,VALID,0,VALID,93.9588,VALID,0,VALID,22.1617,VALID,103,VALID,0.299609,
2009-02-17, 01:21:05,VALID,999.705,VALID,0,VALID,94.1648,VALID,0,VALID,22.2007,VALID,103,VALID,0.4875,
2009-02-17, 01:22:05,VALID,999.726,VALID,0,VALID,94.119,VALID,0,VALID,22.2007,VALID,103,VALID,0.621094,
2009-02-17, 01:23:05,VALID,999.715,VALID,0,VALID,94.058,VALID,0,VALID,22.2202,VALID,103,VALID,0.751953,
2009-02-17, 01:24:05,VALID,999.747,VALID,0,VALID,93.9511,VALID,0,VALID,22.199,VALID,98,VALID,0.871094,
2009-02-17, 01:25:05,VALID,999.767,VALID,0,VALID,93.8977,VALID,0,VALID,22.2397,VALID,94,VALID,0.934375,
2009-02-17, 01:26:05,VALID,999.758,VALID,0,VALID,93.8367,VALID,0,VALID,22.3,VALID,93,VALID,0.732031,
2009-02-17, 01:27:05,VALID,999.757,VALID,0,VALID,93.7757,VALID,0,VALID,22.2788,VALID,94,VALID,0.574219,
2009-02-17, 01:28:04,VALID,999.756,VALID,0,VALID,93.852,VALID,0,VALID,22.2983,VALID,105,VALID,0.661328,
2009-02-17, 01:29:04,VALID,999.766,VALID,0,VALID,93.8748,VALID,0,VALID,22.2983,VALID,105,VALID,0.596875,
2009-02-17, 01:30:04,VALID,999.777,VALID,0,VALID,93.9206,VALID,0,VALID,22.3178,VALID,105,VALID,0.598047,
2009-02-17, 01:31:04,VALID,999.768,VALID,0,VALID,93.8901,VALID,0,VALID,22.3195,VALID,105,VALID,0.758203,
2009-02-17, 01:32:04,VALID,999.782,VALID,0,VALID,93.8901,VALID,0,VALID,22.3178,VALID,105,VALID,0.735937,
2009-02-17, 01:33:04,VALID,999.774,VALID,0,VALID,93.7909,VALID,0,VALID,22.2983,VALID,105,VALID,0.637109,
2009-02-17, 01:34:04,VALID,999.765,VALID,0,VALID,93.7833,VALID,0,VALID,22.2983,VALID,105,VALID,0.485547,
2009-02-17, 01:35:04,VALID,999.755,VALID,0,VALID,93.7451,VALID,0,VALID,22.3,VALID,105,VALID,0.316797,
2009-02-17, 01:36:04,VALID,999.731,VALID,0,VALID,93.7146,VALID,0,VALID,22.2592,VALID,105,VALID,0,
2009-02-17, 01:37:04,VALID,999.705,VALID,0,VALID,93.646,VALID,0,VALID,22.2592,VALID,105,VALID,0,
2009-02-17, 01:38:04,VALID,999.709,VALID,0,VALID,93.6307,VALID,0,VALID,22.2397,VALID,105,VALID,0,
2009-02-17, 01:39:04,VALID,999.663,VALID,0,VALID,93.646,VALID,0,VALID,22.2202,VALID,105,VALID,0,
2009-02-17, 01:40:04,VALID,999.639,VALID,0,VALID,93.7528,VALID,0,VALID,22.2007,VALID,105,VALID,0.308984,
2009-02-17, 01:41:04,VALID,999.634,VALID,0,VALID,93.9054,VALID,0,VALID,22.2219,VALID,105,VALID,0.362891,
2009-02-17, 01:42:04,VALID,999.63,VALID,0,VALID,93.974,VALID,0,VALID,22.2202,VALID,104,VALID,0.186719,
2009-02-17, 01:43:04,VALID,999.636,VALID,0,VALID,93.9588,VALID,0,VALID,22.2397,VALID,102,VALID,0.508203,
2009-02-17, 01:44:04,VALID,999.622,VALID,0,VALID,93.8748,VALID,0,VALID,22.2397,VALID,102,VALID,0.108984,
2009-02-17, 01:45:04,VALID,999.638,VALID,0,VALID,93.8062,VALID,0,VALID,22.2592,VALID,102,VALID,0.142188,
2009-02-17, 01:46:04,VALID,999.624,VALID,0,VALID,93.7757,VALID,0,VALID,22.2397,VALID,102,VALID,0,
2009-02-17, 01:47:04,VALID,999.589,VALID,0,VALID,93.7985,VALID,0,VALID,22.2397,VALID,102,VALID,0,
2009-02-17, 01:48:04,VALID,999.584,VALID,0,VALID,93.8672,VALID,0,VALID,22.2592,VALID,102,VALID,0,
2009-02-17, 01:49:04,VALID,999.594,VALID,0,VALID,93.8138,VALID,0,VALID,22.2397,VALID,102,VALID,0,
2009-02-17, 01:50:04,VALID,999.6,VALID,0,VALID,93.7909,VALID,0,VALID,22.2397,VALID,102,VALID,0,
2009-02-17, 01:51:04,VALID,999.604,VALID,0,VALID,93.8672,VALID,0,VALID,22.2202,VALID,102,VALID,0,
2009-02-17, 01:52:04,VALID,999.619,VALID,0,VALID,93.9359,VALID,0,VALID,22.2609,VALID,102,VALID,0.333984,
2009-02-17, 01:53:04,VALID,999.641,VALID,0,VALID,93.9206,VALID,0,VALID,22.2609,VALID,102,VALID,0,
2009-02-17, 01:54:04,VALID,999.651,VALID,0,VALID,94.0732,VALID,0,VALID,22.2592,VALID,102,VALID,0.00117188,
2009-02-17, 01:55:04,VALID,999.682,VALID,0,VALID,93.9893,VALID,0,VALID,22.2983,VALID,42,VALID,0.725,
2009-02-17, 01:56:04,VALID,999.649,VALID,0,VALID,93.7375,VALID,0,VALID,22.2983,VALID,39,VALID,1.10703,
2009-02-17, 01:57:04,VALID,999.668,VALID,0,VALID,93.7299,VALID,0,VALID,22.3178,VALID,61,VALID,0.790625,
2009-02-17, 01:58:04,VALID,999.627,VALID,0,VALID,93.6688,VALID,0,VALID,22.3373,VALID,97,VALID,0.708203,
2009-02-17, 01:59:04,VALID,999.602,VALID,0,VALID,93.6154,VALID,0,VALID,22.3763,VALID,119,VALID,0.898047,
2009-02-17, 02:00:04,VALID,999.575,VALID,0,VALID,93.4171,VALID,0,VALID,22.4348,VALID,126,VALID,0.835547,
2009-02-17, 02:01:04,VALID,999.598,VALID,0,VALID,93.2721,VALID,0,VALID,22.4543,VALID,126,VALID,0.696094,
2009-02-17, 02:02:04,VALID,999.598,VALID,0,VALID,93.1729,VALID,0,VALID,22.4738,VALID,126,VALID,0.470703,
2009-02-17, 02:03:04,VALID,999.599,VALID,0,VALID,93.1043,VALID,0,VALID,22.4933,VALID,126,VALID,0.373047,
2009-02-17, 02:04:04,VALID,999.601,VALID,0,VALID,93.0661,VALID,0,VALID,22.5128,VALID,126,VALID,0.241406,
2009-02-17, 02:05:04,VALID,999.625,VALID,0,VALID,93.0432,VALID,0,VALID,22.5128,VALID,126,VALID,0.322656,
2009-02-17, 02:06:04,VALID,999.61,VALID,0,VALID,93.0737,VALID,0,VALID,22.5323,VALID,126,VALID,0.448828,
2009-02-17, 02:07:04,VALID,999.614,VALID,0,VALID,93.0585,VALID,0,VALID,22.5323,VALID,127,VALID,0.472656,
2009-02-17, 02:08:04,VALID,999.641,VALID,0,VALID,92.944,VALID,0,VALID,22.5714,VALID,127,VALID,0.579687,
2009-02-17, 02:09:04,VALID,999.672,VALID,0,VALID,92.8601,VALID,0,VALID,22.5909,VALID,127,VALID,0.526563,
2009-02-17, 02:10:04,VALID,999.671,VALID,0,VALID,92.6846,VALID,0,VALID,22.6104,VALID,127,VALID,0.6875,
2009-02-17, 02:11:04,VALID,999.683,VALID,0,VALID,92.5702,VALID,0,VALID,22.6299,VALID,127,VALID,0.788281,
2009-02-17, 02:12:04,VALID,999.699,VALID,0,VALID,92.4176,VALID,0,VALID,22.6689,VALID,129,VALID,0.765625,
2009-02-17, 02:13:04,VALID,999.699,VALID,0,VALID,92.2421,VALID,0,VALID,22.7079,VALID,129,VALID,0.779688,
2009-02-17, 02:14:04,VALID,999.716,VALID,0,VALID,92.2192,VALID,0,VALID,22.7079,VALID,129,VALID,0.632813,
2009-02-17, 02:15:04,VALID,999.724,VALID,0,VALID,92.2345,VALID,0,VALID,22.7487,VALID,129,VALID,0.408984,
2009-02-17, 02:16:04,VALID,999.744,VALID,0,VALID,92.1277,VALID,0,VALID,22.7096,VALID,129,VALID,0.344141,
2009-02-17, 02:17:04,VALID,999.698,VALID,0,VALID,92.1658,VALID,0,VALID,22.7079,VALID,129,VALID,0.179297,
2009-02-17, 02:18:04,VALID,999.739,VALID,0,VALID,92.204,VALID,0,VALID,22.7096,VALID,129,VALID,0.132813,
2009-02-17, 02:19:04,VALID,999.717,VALID,0,VALID,92.2497,VALID,0,VALID,22.6689,VALID,129,VALID,0,
2009-02-17, 02:20:04,VALID,999.738,VALID,0,VALID,92.2116,VALID,0,VALID,22.6689,VALID,129,VALID,0,
2009-02-17, 02:21:04,VALID,999.774,VALID,0,VALID,92.1811,VALID,0,VALID,22.6494,VALID,114,VALID,0.470703,
2009-02-17, 02:22:04,VALID,999.782,VALID,0,VALID,92.2345,VALID,0,VALID,22.6494,VALID,75,VALID,0.8875,
2009-02-17, 02:23:04,VALID,999.799,VALID,0,VALID,92.2421,VALID,0,VALID,22.6494,VALID,75,VALID,0.659375,
2009-02-17, 02:24:04,VALID,999.765,VALID,0,VALID,92.2803,VALID,0,VALID,22.6689,VALID,75,VALID,0.549609,
2009-02-17, 02:25:04,VALID,999.798,VALID,0,VALID,92.2803,VALID,0,VALID,22.6689,VALID,75,VALID,0.487109,
2009-02-17, 02:26:04,VALID,999.822,VALID,0,VALID,92.2879,VALID,0,VALID,22.6689,VALID,75,VALID,0.322656,
2009-02-17, 02:27:04,VALID,999.801,VALID,0,VALID,92.3718,VALID,0,VALID,22.6689,VALID,75,VALID,0.316797,
2009-02-17, 02:28:04,VALID,999.814,VALID,0,VALID,92.3337,VALID,0,VALID,22.6689,VALID,85,VALID,0.440234,
2009-02-17, 02:29:04,VALID,999.786,VALID,0,VALID,92.3871,VALID,0.112286,VALID,22.6884,VALID,85,VALID,0.0222656,
2009-02-17, 02:30:04,VALID,999.821,VALID,0,VALID,92.4405,VALID,0,VALID,22.6884,VALID,85,VALID,0.123047,
2009-02-17, 02:31:04,VALID,999.775,VALID,0,VALID,92.5473,VALID,0,VALID,22.6689,VALID,85,VALID,0.0398437,
2009-02-17, 02:32:04,VALID,999.799,VALID,0,VALID,92.4786,VALID,0,VALID,22.6884,VALID,85,VALID,0.369531,
2009-02-17, 02:33:04,VALID,999.772,VALID,0,VALID,92.3718,VALID,0,VALID,22.6689,VALID,85,VALID,0.438281,
2009-02-17, 02:34:04,VALID,999.753,VALID,0,VALID,92.2803,VALID,0,VALID,22.6689,VALID,85,VALID,0.256641,
2009-02-17, 02:35:04,VALID,999.752,VALID,0,VALID,92.2268,VALID,0,VALID,22.6706,VALID,85,VALID,0.00664063,
2009-02-17, 02:36:04,VALID,999.725,VALID,0,VALID,92.1963,VALID,0,VALID,22.6706,VALID,85,VALID,0,
2009-02-17, 02:37:04,VALID,999.735,VALID,0,VALID,92.2421,VALID,0,VALID,22.6706,VALID,85,VALID,0,
2009-02-17, 02:38:04,VALID,999.763,VALID,0,VALID,92.265,VALID,0,VALID,22.6511,VALID,85,VALID,0.0164062,
2009-02-17, 02:39:04,VALID,999.749,VALID,0,VALID,92.265,VALID,0,VALID,22.6511,VALID,85,VALID,0.104687,
2009-02-17, 02:40:04,VALID,999.739,VALID,0,VALID,92.2497,VALID,0,VALID,22.6706,VALID,85,VALID,0.228125,
2009-02-17, 02:41:04,VALID,999.702,VALID,0,VALID,92.2345,VALID,0,VALID,22.6706,VALID,81,VALID,0.388672,
2009-02-17, 02:42:04,VALID,999.704,VALID,0,VALID,92.1887,VALID,0,VALID,22.6901,VALID,73,VALID,0.233594,
2009-02-17, 02:43:04,VALID,999.694,VALID,0,VALID,92.1429,VALID,0,VALID,22.7114,VALID,72,VALID,0.279297,
2009-02-17, 02:44:04,VALID,999.699,VALID,0,VALID,92.0819,VALID,0,VALID,22.6706,VALID,24,VALID,0.575,
2009-02-17, 02:45:04,VALID,999.631,VALID,0,VALID,92.2726,VALID,0,VALID,22.6511,VALID,23,VALID,0.496094,
2009-02-17, 02:46:04,VALID,999.671,VALID,0,VALID,92.3413,VALID,0,VALID,22.6316,VALID,23,VALID,0.459375,
2009-02-17, 02:47:04,VALID,999.678,VALID,0,VALID,92.3413,VALID,0,VALID,22.5926,VALID,23,VALID,0.540625,
2009-02-17, 02:48:04,VALID,999.657,VALID,0,VALID,92.6083,VALID,0,VALID,22.5731,VALID,23,VALID,0.466406,
2009-02-17, 02:49:04,VALID,999.688,VALID,0,VALID,92.5702,VALID,0,VALID,22.5536,VALID,23,VALID,0.5875,
2009-02-17, 02:50:04,VALID,999.721,VALID,0,VALID,92.7075,VALID,0,VALID,22.5323,VALID,23,VALID,0.441406,
2009-02-17, 02:51:04,VALID,999.722,VALID,0,VALID,92.7457,VALID,0,VALID,22.4933,VALID,20,VALID,0.536328,
2009-02-17, 02:52:04,VALID,999.691,VALID,0,VALID,92.9517,VALID,0,VALID,22.4738,VALID,18,VALID,0.459375,
2009-02-17, 02:53:04,VALID,999.7,VALID,0,VALID,93.1271,VALID,0,VALID,22.4933,VALID,18,VALID,0.402734,
2009-02-17, 02:54:04,VALID,999.696,VALID,0,VALID,93.1958,VALID,0,VALID,22.4738,VALID,18,VALID,0.184766,
2009-02-17, 02:55:04,VALID,999.681,VALID,0,VALID,93.1958,VALID,0,VALID,22.4543,VALID,18,VALID,0,
2009-02-17, 02:56:04,VALID,999.706,VALID,0,VALID,93.15,VALID,0,VALID,22.4755,VALID,18,VALID,0,
2009-02-17, 02:57:04,VALID,999.701,VALID,0,VALID,93.3713,VALID,0,VALID,22.4348,VALID,18,VALID,0.266406,
2009-02-17, 02:58:04,VALID,999.708,VALID,0,VALID,93.4094,VALID,0,VALID,22.4348,VALID,18,VALID,0.200391,
2009-02-17, 02:59:04,VALID,999.686,VALID,0,VALID,93.3331,VALID,0,VALID,22.4153,VALID,22,VALID,0.469531,
2009-02-17, 03:00:04,VALID,999.715,VALID,0,VALID,93.3103,VALID,0,VALID,22.3958,VALID,44,VALID,0.599219,
2009-02-17, 03:01:04,VALID,999.682,VALID,0,VALID,93.0661,VALID,0,VALID,22.3763,VALID,45,VALID,0.505469,
2009-02-17, 03:02:04,VALID,999.684,VALID,0,VALID,93.1119,VALID,0,VALID,22.3373,VALID,45,VALID,0.327344,
2009-02-17, 03:03:04,VALID,999.667,VALID,0,VALID,93.1195,VALID,0,VALID,22.2983,VALID,45,VALID,0.0867188,
2009-02-17, 03:04:04,VALID,999.651,VALID,0,VALID,93.3179,VALID,0,VALID,22.2788,VALID,45,VALID,0.305469,
2009-02-17, 03:05:04,VALID,999.663,VALID,0,VALID,93.4781,VALID,0,VALID,22.2983,VALID,45,VALID,0.423828,
2009-02-17, 03:06:04,VALID,999.661,VALID,0,VALID,93.6383,VALID,0,VALID,22.2983,VALID,41,VALID,0.623438,
2009-02-17, 03:07:04,VALID,999.653,VALID,0,VALID,93.6688,VALID,0,VALID,22.2983,VALID,35,VALID,0.621484,
2009-02-17, 03:08:04,VALID,999.678,VALID,0,VALID,93.7833,VALID,0,VALID,22.3178,VALID,35,VALID,0.689062,
2009-02-17, 03:09:04,VALID,999.676,VALID,0,VALID,93.8291,VALID,0,VALID,22.3373,VALID,35,VALID,0.628516,
2009-02-17, 03:10:04,VALID,999.707,VALID,0,VALID,93.7604,VALID,0,VALID,22.3568,VALID,35,VALID,0.55,
2009-02-17, 03:11:04,VALID,999.689,VALID,0,VALID,93.6841,VALID,0,VALID,22.3373,VALID,35,VALID,0.440625,
2009-02-17, 03:12:04,VALID,999.705,VALID,0,VALID,93.5544,VALID,0,VALID,22.3373,VALID,35,VALID,0.412109,
2009-02-17, 03:13:04,VALID,999.701,VALID,0,VALID,93.5849,VALID,0,VALID,22.3373,VALID,35,VALID,0.368359,
2009-02-17, 03:14:04,VALID,999.688,VALID,0,VALID,93.7451,VALID,0,VALID,22.3356,VALID,35,VALID,0.547266,
2009-02-17, 03:15:04,VALID,999.685,VALID,0,VALID,93.6688,VALID,0,VALID,22.3356,VALID,35,VALID,0.204688,
2009-02-17, 03:16:04,VALID,999.668,VALID,0,VALID,93.5773,VALID,0,VALID,22.3178,VALID,35,VALID,0,
2009-02-17, 03:17:04,VALID,999.691,VALID,0,VALID,93.5239,VALID,0,VALID,22.2983,VALID,35,VALID,0,
2009-02-17, 03:18:04,VALID,999.702,VALID,0,VALID,93.5926,VALID,0,VALID,22.2983,VALID,35,VALID,0,
2009-02-17, 03:19:04,VALID,999.681,VALID,0,VALID,93.7985,VALID,0,VALID,22.2983,VALID,35,VALID,0,
2009-02-17, 03:20:04,VALID,999.69,VALID,0,VALID,93.9817,VALID,0,VALID,22.3178,VALID,35,VALID,0.194922,
2009-02-17, 03:21:04,VALID,999.758,VALID,0,VALID,93.974,VALID,0,VALID,22.3373,VALID,35,VALID,0.317969,
2009-02-17, 03:22:04,VALID,999.755,VALID,0,VALID,93.9283,VALID,0,VALID,22.3161,VALID,35,VALID,0.411719,
2009-02-17, 03:23:04,VALID,999.785,VALID,0,VALID,93.8748,VALID,0,VALID,22.3373,VALID,35,VALID,0.513281,
2009-02-17, 03:24:04,VALID,999.752,VALID,0,VALID,93.8062,VALID,0,VALID,22.3373,VALID,35,VALID,0.605078,
2009-02-17, 03:25:04,VALID,999.728,VALID,0,VALID,93.7528,VALID,0,VALID,22.378,VALID,35,VALID,0.413672,
2009-02-17, 03:26:04,VALID,999.773,VALID,0,VALID,93.646,VALID,0,VALID,22.3373,VALID,35,VALID,0.349609,
2009-02-17, 03:27:04,VALID,999.782,VALID,0,VALID,93.5773,VALID,0,VALID,22.3178,VALID,35,VALID,0.271094,
2009-02-17, 03:28:04,VALID,999.801,VALID,0,VALID,93.6231,VALID,0,VALID,22.3178,VALID,35,VALID,0.307422,
2009-02-17, 03:29:04,VALID,999.811,VALID,0,VALID,93.562,VALID,0,VALID,22.3178,VALID,35,VALID,0.489453,
2009-02-17, 03:30:04,VALID,999.808,VALID,0,VALID,93.5697,VALID,0,VALID,22.3178,VALID,48,VALID,0.620703,
2009-02-17, 03:31:04,VALID,999.798,VALID,0,VALID,93.7299,VALID,0,VALID,22.3178,VALID,66,VALID,0.8,
2009-02-17, 03:32:04,VALID,999.794,VALID,0,VALID,93.7833,VALID,0,VALID,22.339,VALID,66,VALID,0.846875,
2009-02-17, 03:33:04,VALID,999.832,VALID,0,VALID,93.9206,VALID,0,VALID,22.3178,VALID,66,VALID,0.80625,
2009-02-17, 03:34:04,VALID,999.813,VALID,0,VALID,93.974,VALID,0,VALID,22.3178,VALID,66,VALID,0.695313,
2009-02-17, 03:35:04,VALID,999.819,VALID,0,VALID,93.9969,VALID,0,VALID,22.3178,VALID,66,VALID,0.510156,
2009-02-17, 03:36:04,VALID,999.78,VALID,0,VALID,93.9283,VALID,0,VALID,22.2983,VALID,66,VALID,0.336328,
2009-02-17, 03:37:04,VALID,999.786,VALID,0,VALID,93.9435,VALID,0,VALID,22.2983,VALID,66,VALID,0.208984,
2009-02-17, 03:38:04,VALID,999.749,VALID,0,VALID,93.9664,VALID,0,VALID,22.2983,VALID,66,VALID,0.155469,
2009-02-17, 03:39:04,VALID,999.787,VALID,0,VALID,94.0427,VALID,0,VALID,22.2983,VALID,66,VALID,0.0996094,
2009-02-17, 03:40:04,VALID,999.789,VALID,0,VALID,94.0656,VALID,0,VALID,22.2983,VALID,66,VALID,0.406641,
2009-02-17, 03:41:04,VALID,999.759,VALID,0,VALID,94.0503,VALID,0,VALID,22.2983,VALID,66,VALID,0.395312,
2009-02-17, 03:42:04,VALID,999.769,VALID,0,VALID,94.0427,VALID,0,VALID,22.2592,VALID,66,VALID,0.39375,
2009-02-17, 03:43:04,VALID,999.765,VALID,0,VALID,94.119,VALID,0,VALID,22.2592,VALID,66,VALID,0.501172,
2009-02-17, 03:44:04,VALID,999.774,VALID,0,VALID,94.2945,VALID,0,VALID,22.2788,VALID,50,VALID,0.891406,
2009-02-17, 03:45:04,VALID,999.757,VALID,0,VALID,94.2029,VALID,0,VALID,22.2788,VALID,43,VALID,0.940234,
2009-02-17, 03:46:04,VALID,999.733,VALID,0,VALID,94.119,VALID,0,VALID,22.2592,VALID,43,VALID,1.01406,
2009-02-17, 03:47:04,VALID,999.711,VALID,0,VALID,94.3021,VALID,0,VALID,22.2592,VALID,42,VALID,0.963672,